DW7418 Weather Reports


time (UTC)temp
F
wind
direction
speed
knots
gust
knots
rain 1hr
in
rain 24hr
in
rain mn
in
humidity
%
barometer
mb
20260506061803 52 17 5.2 12.2 0.00 0.00 0.00 1 1009.1
20260506060903 52 2 3.5 12.2 0.00 0.00 0.00 1 1009.0
20260506050903 51 16 5.2 12.2 0.00 0.00 0.00 1 1009.0
20260506044503 51 18 5.2 14.8 0.00 0.00 0.00 1 1008.9
20260506043603 51 11 4.3 10.4 0.00 0.00 0.00 1 1008.9
20260506042703 51 1 4.3 12.2 0.00 0.00 0.00 1 1008.9
20260506041803 51 355 3.5 11.3 0.00 0.00 0.00 1 1008.8
20260506041118 51 356 3.5 10.4 0.00 0.00 0.00 4 1008.9
20260506040003 51 1 3.5 9.6 0.00 0.00 0.00 8 1009.0
20260506035619 51 5 2.6 9.6 0.00 0.00 0.00 9 1008.9
20260506034503 51 360 3.5 13.9 0.00 0.00 0.00 11 1009.0
20260506033603 51 4 3.5 8.7 0.00 0.00 0.00 13 1009.0
20260506032703 51 354 3.5 9.6 0.00 0.00 0.00 14 1009.0
20260506031803 50 357 3.5 9.6 0.00 0.00 0.00 15 1009.2
20260506030903 50 354 2.6 9.6 0.00 0.00 0.00 16 1009.2
20260506030003 50 358 2.6 9.6 0.00 0.00 0.00 16 1009.3
20260506025403 50 2 2.6 9.6 0.00 0.00 0.00 16 1009.4
20260506024503 50 7 3.5 10.4 0.00 0.00 0.00 15 1009.4
20260506023603 50 360 3.5 13.0 0.00 0.00 0.00 14 1009.5
20260506022703 50 2 3.5 13.0 0.00 0.00 0.00 11 1009.6
20260506021803 50 2 3.5 12.2 0.00 0.00 0.00 9 1009.6
20260506020903 50 359 3.5 8.7 0.00 0.00 0.00 9 1009.5
20260506020218 51 356 2.6 9.6 0.00 0.00 0.00 8 1009.5
20260506015403 51 354 3.5 9.6 0.00 0.00 0.00 8 1009.6
20260506014717 51 354 2.6 8.7 0.00 0.00 0.00 8 1009.6
20260506013603 51 347 3.5 8.7 0.00 0.00 0.00 8 1009.7
20260506012703 51 360 3.5 13.0 0.00 0.00 0.00 9 1009.7
20260506011803 51 355 2.6 7.8 0.00 0.00 0.00 11 1009.7
20260506010903 51 357 3.5 8.7 0.00 0.00 0.00 14 1009.8
20260506010003 51 360 2.6 7.8 0.00 0.00 0.00 17 1009.9
20260506005403 51 357 2.6 7.8 0.00 0.00 0.00 19 1010.0
20260506004717 51 355 2.6 7.0 0.00 0.00 0.00 21 1010.0
20260506003603 51 355 2.6 7.8 0.00 0.00 0.00 25 1010.1
20260506002703 51 349 2.6 9.6 0.00 0.00 0.00 28 1010.1
20260506001803 51 352 2.6 7.8 0.00 0.00 0.00 30 1010.1
20260506000903 51 356 3.5 7.0 0.00 0.00 0.00 31 1010.2
20260506000003 51 354 3.5 10.4 0.00 0.00 0.00 32 1010.3
20260505235403 51 360 3.5 8.7 0.00 0.00 0.00 33 1010.4
20260505234503 51 352 2.6 7.0 0.00 0.00 0.00 34 1010.5
20260505233603 51 357 2.6 9.6 0.00 0.00 0.00 34 1010.5
20260505232703 51 351 2.6 9.6 0.00 0.00 0.00 33 1010.5
20260505231803 51 351 3.5 8.7 0.00 0.00 0.00 33 1010.5
20260505231118 51 352 3.5 8.7 0.00 0.00 0.00 33 1010.5
20260505230003 51 356 2.6 8.7 0.00 0.00 0.00 31 1010.6
20260505225403 51 6 2.6 8.7 0.00 0.00 0.00 31 1010.7
20260505224718 51 11 3.5 8.7 0.00 0.00 0.00 29 1010.7
20260505223817 51 353 3.5 10.4 0.00 0.00 0.00 28 1010.8
20260505222703 51 6 3.5 9.6 0.00 0.00 0.00 26 1010.8
20260505221803 51 355 2.6 7.8 0.00 0.00 0.00 25 1010.8
20260505220903 51 2 3.5 10.4 0.00 0.00 0.00 25 1010.9
20260505220006 51 4 3.5 9.6 0.00 0.00 0.00 26 1010.9
20260505215403 51 7 3.5 8.7 0.00 0.00 0.00 27 1011.0
20260505214503 51 360 4.3 12.2 0.00 0.00 0.00 28 1011.1
20260505213603 51 9 3.5 12.2 0.00 0.00 0.00 30 1011.1
20260505212918 51 3 3.5 10.4 0.00 0.00 0.00 32 1011.1
20260505211803 51 15 3.5 10.4 0.00 0.00 0.00 36 1011.2
20260505210903 51 8 4.3 13.0 0.00 0.00 0.00 38 1011.2
20260505210222 51 359 4.3 13.0 0.00 0.00 0.00 39 1011.2
20260505205618 51 359 3.5 8.7 0.00 0.00 0.00 40 1011.3
20260505204717 51 7 4.3 10.4 0.00 0.00 0.00 41 1011.4
20260505203817 51 355 3.5 9.6 0.00 0.00 0.00 42 1011.3
20260505202703 51 357 2.6 7.8 0.00 0.00 0.00 46 1011.3
20260505201803 51 350 3.5 10.4 0.00 0.00 0.00 50 1011.3
20260505200903 51 357 3.5 8.7 0.00 0.00 0.00 52 1011.2
20260505200004 51 2 4.3 10.4 0.00 0.00 0.00 54 1011.2
20260505195403 51 357 4.3 10.4 0.00 0.00 0.00 56 1011.2
20260505194717 51 3 3.5 10.4 0.00 0.00 0.00 57 1011.1
20260505193818 51 9 4.3 13.0 0.00 0.00 0.00 60 1011.1
20260505192703 51 360 3.5 11.3 0.00 0.00 0.00 63 1010.9
20260505192017 51 7 3.5 10.4 0.00 0.00 0.00 65 1011.0
20260505191118 51 5 4.3 10.4 0.00 0.00 0.00 67 1011.0
20260505190004 51 6 3.5 11.3 0.00 0.00 0.00 68 1010.9
20260505185408 51 10 3.5 12.2 0.00 0.00 0.00 68 1010.9
20260505184503 51 12 4.3 13.0 0.00 0.00 0.00 69 1010.7
20260505183603 51 4 2.6 10.4 0.00 0.00 0.00 68 1010.9
20260505182703 51 358 3.5 12.2 0.00 0.00 0.00 68 1010.9
20260505181803 51 7 3.5 12.2 0.00 0.00 0.00 68 1010.9
20260505180903 52 4 4.3 12.2 0.00 0.00 0.00 68 1011.1
20260505180003 52 14 4.3 11.3 0.00 0.00 0.00 69 1011.0
20260505175403 52 13 4.3 10.4 0.00 0.00 0.00 69 1010.9
20260505174503 52 10 4.3 9.6 0.00 0.00 0.00 68 1010.9
20260505173603 53 10 3.5 12.2 0.00 0.00 0.00 69 1010.9
20260505172703 53 7 3.5 12.2 0.00 0.00 0.00 69 1010.9
20260505172018 53 360 3.5 10.4 0.00 0.00 0.00 68 1010.9
20260505170903 54 10 4.3 11.3 0.00 0.00 0.00 68 1010.9
20260505170004 54 6 3.5 11.3 0.00 0.00 0.00 68 1010.9
20260505165618 54 358 3.5 10.4 0.00 0.00 0.00 68 1010.8
20260505164503 54 357 4.3 13.0 0.00 0.00 0.00 68 1011.0
20260505163603 55 11 5.2 11.3 0.00 0.00 0.00 67 1010.9
20260505162703 55 12 3.5 11.3 0.00 0.00 0.00 67 1010.9
20260505161803 56 6 4.3 13.9 0.00 0.00 0.00 65 1011.0
20260505160903 56 12 4.3 10.4 0.00 0.00 0.00 66 1011.0
20260505152703 57 14 4.3 9.6 0.00 0.00 0.00 64 1011.0
20260505151803 57 13 5.2 12.2 0.00 0.00 0.00 64 1011.0
20260505150903 57 17 4.3 12.2 0.00 0.00 0.00 64 1011.0
20260505124508 59 13 4.3 12.2 0.00 0.00 0.00 59 1011.6
20260505123603 60 17 4.3 9.6 0.00 0.00 0.00 60 1011.7
20260505122708 59 16 5.2 12.2 0.00 0.00 0.00 60 1011.8
20260505121803 60 9 4.3 12.2 0.00 0.00 0.00 59 1011.7
20260505120903 60 11 4.3 13.9 0.00 0.00 0.00 58 1011.7
20260505120004 60 25 4.3 13.0 0.00 0.00 0.00 61 1011.8
20260505115403 59 19 4.3 13.0 0.00 0.00 0.00 60 1011.8
20260505114718 59 21 4.3 13.0 0.00 0.00 0.00 59 1011.9
20260505113817 58 24 3.5 9.6 0.00 0.00 0.00 60 1011.9
20260505112703 58 26 4.3 11.3 0.00 0.00 0.00 60 1012.0
20260505112018 60 37 3.5 12.2 0.00 0.00 0.00 60 1012.1
20260505110903 58 26 4.3 11.3 0.00 0.00 0.00 61 1012.1
20260505101803 56 28 3.5 13.0 0.00 0.01 0.00 64 1012.6
20260505100903 55 11 3.5 12.2 0.00 0.01 0.00 66 1012.5
20260505100003 57 28 4.3 13.9 0.00 0.01 0.00 63 1012.5
20260505095413 56 18 5.2 13.9 0.00 0.01 0.00 65 1012.4
20260505094717 56 24 4.3 10.4 0.00 0.01 0.00 64 1012.3
20260505093603 57 14 3.5 12.2 0.00 0.01 0.00 66 1012.3
20260505092703 55 10 4.3 13.0 0.00 0.01 0.00 65 1012.4
20260505091803 55 11 3.5 11.3 0.00 0.01 0.00 66 1012.3
20260505090903 55 10 4.3 9.6 0.00 0.01 0.00 67 1012.4
20260505090003 53 5 4.3 12.2 0.00 0.01 0.00 67 1012.5
20260505085403 54 14 5.2 13.0 0.00 0.01 0.00 66 1012.5
20260505084503 55 14 4.3 11.3 0.00 0.01 0.00 64 1012.6
20260505083603 55 13 3.5 9.6 0.00 0.01 0.00 66 1012.7
20260505082703 54 2 2.6 8.7 0.00 0.01 0.00 67 1012.8
20260505081803 54 16 4.3 11.3 0.00 0.01 0.00 66 1012.7
20260505080903 55 6 2.6 13.9 0.00 0.01 0.00 66 1012.9
20260505080003 54 19 3.5 8.7 0.00 0.01 0.00 62 1013.0
20260505075617 53 9 2.6 8.7 0.00 0.01 0.00 63 1013.1
20260505074503 52 10 2.6 7.8 0.00 0.01 0.00 47 1013.3
20260505073603 52 8 2.6 10.4 0.00 0.01 0.00 34 1013.3
20260505072917 51 11 3.5 10.4 0.00 0.01 0.00 28 1013.2
20260505071803 51 12 3.5 8.7 0.00 0.01 0.00 23 1013.1
20260505070903 51 23 3.5 8.7 0.00 0.01 0.00 16 1012.9